Wind_Speed
16 16 16 17 17 16 15 15 15 15 16 16 17 17 18 19 19 20 20 20 20 20 21 21 21 21 23 24 25 25 25 26 26 26 27 26 27 27 27 27 28 29 29
17 16 16 17 17 16 15 15 15 15 15 15 15 16 16 17 18 18 19 19 19 19 19 20 20 21 21 22 23 24 24 25 25 25 26 25 26 25 25 26 27 27 28
17 17 17 17 17 17 16 16 16 16 16 16 17 17 17 17 17 17 18 18 18 18 18 19 19 20 21 21 22 22 22 23 24 24 24 24 24 25 25 25 26 27 27
17 17 17 16 17 17 17 16 16 16 16 16 17 17 17 17 17 17 17 18 18 18 19 19 19 19 20 20 21 21 21 21 22 23 23 24 24 25 26 26 26 26 27
17 17 16 17 17 17 16 16 17 17 17 17 17 18 17 17 18 17 17 17 17 18 18 18 19 19 19 20 20 21 21 21 22 23 23 24 24 25 25 26 26 26 26
18 18 17 17 17 17 17 17 17 17 17 18 18 18 17 17 17 17 17 17 17 17 17 17 18 18 18 18 18 19 20 21 22 23 24 24 24 24 24 25 25 25 26
18 18 17 17 17 16 16 16 17 17 17 17 17 17 16 15 16 17 17 17 17 17 17 17 17 17 16 17 17 18 18 19 21 22 22 22 23 23 23 24 24 25 25
17 17 17 17 16 16 16 16 16 16 16 16 16 16 15 15 15 16 16 16 16 16 16 16 16 16 16 16 16 17 18 20 20 21 21 21 22 22 22 22 23 24 24
19 19 18 18 17 17 16 16 16 16 15 15 16 16 16 15 15 16 16 16 16 15 15 15 15 15 16 16 17 18 18 19 19 20 20 20 20 21 22 23 24 24 24
19 18 18 17 16 16 16 17 17 16 15 15 15 15 15 15 15 15 16 17 16 16 16 16 17 17 17 17 17 18 18 18 19 20 20 21 21 22 23 24 24 24 24
19 18 18 17 16 16 17 17 17 17 16 15 15 15 15 15 15 15 16 16 16 17 17 17 17 17 17 17 17 18 18 19 19 19 20 21 22 23 23 24 24 24 24
19 19 19 18 17 17 18 18 17 16 16 16 16 16 15 14 14 14 15 16 17 17 17 16 16 16 17 17 17 18 18 18 18 19 19 20 20 21 22 23 23 23 24
19 19 19 18 18 18 17 17 16 15 15 15 14 14 14 13 14 14 15 15 16 16 16 16 16 16 16 16 16 17 17 17 17 18 19 20 21 22 22 22 23 24 24
19 19 19 18 17 16 16 16 15 15 15 15 15 14 14 14 14 15 15 15 16 16 16 16 16 16 16 16 16 17 18 18 19 20 20 21 22 23 23 23 24 24 25
19 18 18 18 17 17 16 15 15 14 14 14 15 14 14 15 15 15 16 16 16 16 16 16 16 17 17 17 17 17 17 18 19 20 20 21 22 23 23 23 24 24 25
18 18 17 17 17 17 16 15 14 14 14 14 14 15 15 15 16 15 16 17 17 17 17 17 18 19 19 18 18 17 18 18 19 20 20 21 22 23 23 23 24 24 25
18 18 18 18 18 17 16 15 15 15 15 15 15 15 15 15 16 16 16 17 17 17 17 18 19 19 19 19 18 18 19 20 20 21 21 21 23 23 23 23 24 24 24
19 19 18 18 18 17 17 16 16 16 16 16 16 16 16 16 16 17 17 18 17 17 17 18 18 18 18 18 19 20 20 21 21 21 21 22 23 23 24 24 24 24 25
20 20 20 19 19 18 18 18 18 17 18 17 17 17 17 17 18 18 18 18 18 18 18 19 19 19 19 20 20 21 21 22 22 22 22 23 24 24 25 25 25 25 25
21 21 20 19 19 19 19 19 19 18 18 18 18 18 18 18 18 18 19 19 19 19 19 19 19 20 21 21 21 21 22 23 23 24 24 24 25 25 25 25 26 26 26
21 21 20 19 19 20 20 20 20 19 19 19 19 18 18 19 19 19 19 19 19 19 20 21 21 21 21 21 21 22 23 23 23 24 24 25 25 25 25 26 26 26 26
21 20 20 20 21 20 20 21 21 21 21 19 19 18 18 19 19 19 19 19 20 21 21 21 21 21 21 21 22 23 24 24 25 25 25 26 26 25 25 25 25 26 26
21 21 21 21 20 21 21 21 21 21 19 19 19 18 18 18 19 19 18 19 20 21 21 21 21 21 21 22 23 24 25 25 25 25 25 25 25 24 24 24 25 26 26
22 22 22 22 22 22 22 21 21 21 20 20 20 19 19 19 19 19 20 20 21 21 21 21 21 22 22 23 24 25 25 25 25 25 25 24 24 24 25 25 25 25 26
22 22 22 22 22 21 21 21 21 21 21 21 21 20 20 20 20 20 21 21 22 21 21 22 22 23 24 25 25 25 25 25 24 24 24 24 24 24 24 25 25 25 26
23 23 23 22 22 21 21 21 21 21 21 22 22 21 21 21 21 22 22 22 22 22 23 24 24 25 25 25 26 26 25 24 24 24 24 24 24 24 23 24 24 25 25
Wind_Direction
292 295 299 302 304 305 303 301 299 299 299 298 298 297 296 293 290 290 291 291 292 289 286 283 280 275 273 272 273 274 275 276 276 275 275 275 276 277 277 277 276 276 275
292 295 299 303 302 302 302 302 302 302 302 301 302 302 301 301 298 294 293 295 297 295 292 288 283 279 278 278 278 279 279 277 277 276 277 277 277 280 278 277 278 278 277
290 294 298 301 302 301 300 300 301 300 300 300 301 303 302 303 302 298 297 298 298 296 295 293 288 284 282 281 281 281 280 278 279 280 279 279 280 281 282 281 281 280 278
286 290 294 298 299 301 300 299 299 298 298 300 303 305 304 303 301 300 299 300 300 298 297 294 289 288 285 283 280 278 280 280 279 280 280 280 280 281 282 283 282 280 279
283 286 291 294 296 298 297 296 297 297 296 297 301 305 303 302 302 301 302 302 300 300 299 297 292 289 286 285 282 280 280 281 281 281 282 283 283 283 284 284 283 282 281
281 284 287 293 294 294 295 296 296 296 296 297 301 304 303 303 304 304 305 304 302 301 301 301 298 294 291 288 286 284 284 285 285 285 284 284 285 285 285 286 286 284 283
279 282 286 291 293 292 293 295 297 296 296 298 302 304 304 305 307 307 307 309 307 305 303 303 300 296 291 290 288 287 289 289 289 289 290 288 287 288 287 287 287 286 286
279 283 285 286 287 290 293 296 297 297 297 300 302 303 302 304 306 308 308 310 311 310 309 306 302 297 295 292 290 292 292 293 293 293 292 290 289 289 288 288 290 290 289
277 280 283 283 283 288 292 293 295 297 298 300 302 304 302 302 305 307 307 310 314 314 315 313 309 303 300 296 294 294 295 295 294 294 294 293 291 291 292 291 291 291 290
275 277 280 281 284 288 292 293 296 300 299 301 305 308 306 303 303 305 310 312 314 315 315 312 307 305 305 303 301 301 300 299 298 297 297 295 294 294 293 294 294 294 292
272 274 278 279 283 288 292 293 294 298 300 300 304 307 306 306 309 309 309 311 313 314 314 311 308 305 305 305 304 303 302 300 298 298 299 298 295 293 293 294 296 297 294
270 271 274 277 281 285 288 291 294 296 299 302 301 304 305 306 309 311 315 314 316 317 314 312 311 310 308 305 303 304 302 301 300 300 301 301 301 300 299 298 298 299 297
266 268 272 275 279 282 285 287 290 295 298 300 301 304 306 307 310 311 313 317 320 319 315 314 314 313 313 310 307 308 307 305 306 307 307 305 305 304 303 302 301 302 301
266 270 273 275 276 281 284 287 292 294 297 299 301 304 307 307 308 310 312 316 320 323 323 321 319 320 317 315 312 312 311 309 308 308 309 309 308 306 306 306 305 304 304
265 268 272 275 277 279 283 285 289 293 295 296 297 300 304 306 307 307 309 314 319 322 323 322 319 318 317 316 316 317 315 314 313 312 312 312 312 311 309 308 308 308 308
263 267 271 274 275 277 280 282 285 288 291 291 292 295 301 304 308 308 308 311 314 317 319 319 317 316 316 318 318 318 318 318 318 316 314 313 313 313 312 311 311 311 311
263 265 268 271 273 275 279 280 280 283 286 288 289 293 296 301 305 308 309 310 311 312 315 316 316 316 316 317 317 317 317 317 318 319 319 318 317 316 315 314 313 313 314
261 263 267 269 270 274 275 276 278 279 282 286 289 290 293 296 300 305 308 310 311 311 312 314 316 318 318 317 316 315 316 316 317 316 317 316 317 317 316 315 315 315 316
262 262 265 267 269 272 274 276 278 280 282 285 288 290 292 295 299 303 305 307 309 310 311 312 314 315 316 315 315 314 314 314 315 316 316 315 315 315 316 315 316 316 317
262 262 262 263 267 270 273 274 276 278 280 283 286 287 289 291 295 299 302 303 306 309 310 311 312 312 313 313 312 311 311 312 314 315 315 314 314 315 315 316 317 316 317
259 263 263 262 264 267 271 274 275 276 280 284 284 283 286 288 291 296 298 298 301 304 305 307 309 310 310 311 312 314 313 312 313 314 314 313 314 315 316 318 318 319 319
261 263 266 265 264 267 270 274 276 278 279 282 284 283 285 288 292 295 296 296 298 300 303 306 308 309 308 309 311 311 312 312 313 315 314 313 314 315 317 318 319 321 321
262 265 267 268 269 269 272 277 278 280 280 280 283 284 285 287 291 295 295 297 300 301 302 303 306 307 307 308 309 309 310 312 313 314 314 314 315 316 317 318 319 320 321
263 266 269 271 272 273 274 275 277 278 279 280 283 284 286 288 291 294 295 298 300 302 302 302 304 306 305 306 308 309 309 312 313 314 315 315 314 316 318 318 319 320 322
265 267 267 268 269 270 271 273 275 277 277 278 282 283 285 287 290 293 295 297 298 299 300 302 304 306 306 306 307 307 309 311 312 313 314 314 314 315 317 319 320 322 323
264 265 265 266 266 268 271 274 275 277 277 278 280 282 283 286 289 291 293 295 296 296 297 298 301 302 304 305 307 308 308 309 310 311 312 313 314 315 316 318 320 322 324
Height
5812 5811 5810 5808 5806 5805 5803 5802 5800 5799 5797 5796 5794 5793 5791 5790 5789 5787 5786 5785 5784 5783 5782 5782 5781 5781 5782 5782 5782 5782 5783 5783 5783 5783 5782 5781 5781 5781 5780 5780 5780 5780 5779
5809 5807 5806 5804 5803 5801 5800 5798 5797 5795 5794 5792 5791 5789 5787 5786 5784 5782 5781 5780 5779 5778 5777 5776 5776 5775 5775 5775 5776 5776 5776 5776 5776 5775 5775 5774 5774 5773 5773 5772 5772 5771 5771
5804 5803 5802 5801 5799 5797 5796 5794 5793 5792 5790 5789 5787 5785 5783 5782 5780 5778 5777 5776 5774 5773 5772 5771 5770 5770 5769 5769 5769 5770 5769 5769 5769 5768 5768 5767 5767 5766 5766 5765 5764 5764 5763
5800 5799 5798 5797 5795 5794 5792 5791 5789 5788 5787 5785 5783 5781 5779 5778 5776 5774 5773 5771 5769 5768 5766 5765 5764 5764 5763 5763 5763 5763 5763 5762 5762 5762 5761 5761 5761 5760 5759 5758 5757 5756 5755
5796 5795 5794 5793 5791 5790 5788 5787 5785 5784 5782 5781 5779 5777 5775 5774 5772 5770 5768 5766 5765 5763 5762 5760 5759 5758 5758 5757 5757 5757 5757 5756 5756 5755 5754 5754 5753 5752 5752 5750 5750 5748 5747
5791 5790 5789 5788 5787 5785 5784 5783 5781 5780 5778 5777 5775 5773 5771 5769 5768 5766 5764 5762 5760 5759 5757 5756 5755 5753 5753 5752 5752 5752 5751 5751 5750 5749 5748 5747 5747 5745 5744 5743 5742 5741 5740
5786 5786 5785 5784 5782 5781 5780 5778 5777 5775 5774 5772 5771 5769 5767 5766 5764 5762 5760 5758 5756 5755 5753 5752 5750 5749 5748 5747 5747 5747 5746 5745 5744 5743 5742 5741 5740 5739 5738 5736 5735 5733 5732
5782 5781 5781 5780 5778 5777 5776 5774 5773 5771 5770 5768 5767 5765 5764 5762 5761 5759 5757 5755 5753 5751 5749 5748 5746 5745 5743 5743 5742 5741 5741 5739 5738 5737 5736 5735 5733 5732 5731 5730 5728 5726 5725
5777 5777 5776 5775 5774 5773 5772 5771 5769 5767 5766 5765 5763 5762 5760 5759 5757 5755 5754 5752 5750 5748 5746 5744 5742 5741 5740 5738 5738 5737 5736 5734 5733 5731 5730 5729 5727 5726 5725 5723 5721 5720 5718
5773 5772 5771 5771 5770 5769 5768 5767 5765 5764 5763 5762 5760 5758 5757 5755 5754 5752 5750 5748 5746 5744 5742 5741 5739 5737 5735 5734 5733 5731 5730 5729 5728 5726 5724 5723 5721 5720 5718 5716 5714 5713 5711
5767 5767 5767 5766 5766 5765 5764 5763 5762 5761 5759 5758 5756 5755 5753 5752 5750 5749 5747 5745 5743 5741 5739 5737 5734 5733 5731 5730 5728 5727 5725 5724 5723 5721 5719 5717 5715 5714 5712 5710 5708 5705 5703
5762 5762 5762 5762 5761 5761 5760 5759 5758 5757 5756 5754 5753 5751 5750 5748 5747 5745 5744 5742 5740 5738 5735 5733 5730 5728 5727 5725 5724 5722 5721 5719 5718 5716 5714 5712 5710 5708 5706 5703 5701 5698 5696
5756 5757 5757 5757 5757 5756 5756 5755 5754 5753 5752 5751 5750 5748 5747 5745 5744 5742 5740 5738 5736 5734 5732 5729 5727 5725 5723 5721 5720 5718 5717 5715 5713 5711 5709 5707 5704 5702 5699 5697 5694 5691 5689
5751 5752 5752 5752 5752 5752 5751 5750 5750 5749 5748 5747 5746 5745 5743 5742 5740 5739 5737 5735 5733 5731 5728 5726 5724 5722 5720 5718 5716 5714 5712 5710 5708 5706 5704 5701 5699 5696 5693 5690 5688 5685 5683
5747 5747 5747 5747 5747 5747 5746 5746 5745 5745 5744 5743 5742 5741 5740 5739 5737 5735 5734 5732 5730 5728 5725 5724 5722 5720 5718 5715 5713 5711 5708 5706 5703 5700 5698 5696 5693 5690 5688 5685 5682 5679 5676
5741 5742 5742 5742 5742 5742 5742 5742 5741 5740 5740 5739 5738 5737 5736 5735 5733 5731 5730 5728 5726 5724 5723 5721 5718 5716 5714 5712 5709 5707 5705 5702 5699 5696 5693 5691 5688 5685 5682 5679 5676 5672 5669
5736 5737 5737 5737 5737 5738 5737 5737 5737 5736 5735 5735 5734 5733 5732 5731 5729 5728 5726 5725 5723 5721 5719 5717 5715 5713 5710 5708 5706 5704 5701 5699 5696 5693 5689 5686 5683 5680 5677 5673 5670 5667 5663
5731 5731 5732 5732 5732 5732 5732 5732 5732 5731 5731 5730 5730 5729 5728 5727 5725 5724 5722 5721 5719 5718 5716 5714 5711 5709 5706 5704 5702 5700 5697 5694 5691 5688 5685 5682 5679 5675 5672 5669 5665 5662 5658
5725 5726 5726 5726 5727 5727 5727 5726 5726 5726 5725 5725 5725 5724 5723 5722 5721 5720 5718 5717 5715 5713 5711 5709 5707 5705 5702 5700 5697 5695 5692 5689 5686 5683 5680 5677 5674 5670 5667 5663 5660 5656 5652
5719 5720 5720 5720 5721 5721 5721 5721 5721 5720 5720 5720 5719 5719 5718 5717 5716 5715 5713 5712 5710 5709 5707 5705 5703 5700 5697 5695 5692 5690 5687 5684 5681 5678 5675 5672 5668 5665 5661 5658 5654 5650 5646
5713 5713 5714 5714 5715 5715 5715 5715 5715 5714 5714 5714 5714 5713 5712 5712 5711 5709 5708 5707 5705 5704 5702 5700 5698 5695 5692 5690 5687 5684 5682 5679 5676 5673 5670 5666 5663 5659 5656 5652 5648 5644 5640
5707 5707 5708 5708 5709 5709 5709 5709 5709 5709 5708 5708 5708 5707 5707 5706 5705 5704 5702 5701 5700 5698 5696 5695 5692 5690 5687 5685 5682 5679 5676 5673 5671 5667 5664 5661 5657 5653 5650 5646 5642 5638 5634
5701 5702 5702 5702 5702 5702 5703 5703 5702 5702 5702 5702 5702 5701 5701 5701 5699 5698 5697 5696 5694 5692 5691 5689 5687 5684 5682 5679 5676 5674 5671 5668 5665 5661 5658 5655 5651 5648 5644 5640 5636 5632 5628
5696 5696 5696 5696 5696 5696 5697 5697 5696 5696 5696 5696 5696 5695 5695 5695 5694 5692 5691 5690 5689 5687 5685 5683 5681 5678 5676 5673 5671 5668 5665 5662 5659 5656 5652 5649 5646 5643 5639 5635 5631 5627 5623
5690 5690 5690 5690 5691 5691 5691 5690 5690 5690 5690 5690 5690 5689 5689 5689 5688 5687 5686 5684 5683 5681 5679 5677 5675 5673 5670 5667 5665 5662 5659 5656 5653 5650 5647 5644 5640 5637 5634 5630 5626 5622 5618
5683 5683 5684 5684 5684 5685 5685 5685 5684 5684 5684 5684 5683 5683 5683 5682 5682 5681 5679 5678 5677 5675 5673 5671 5669 5666 5664 5661 5659 5656 5653 5650 5647 5644 5641 5638 5635 5632 5628 5625 5621 5617 5613